QPF
0.13 0.12 0.13 0.12 0.11 0.11 0.12 0.11 0.11 0.10 0.08 0.08 0.04 0.04 0.08 0.07 0.10 0.11 0.13 0.11 0.07 0.05 0.06 0.07 0.07 0.06 0.04 0.03 0.03 0.02 0.02 0.02 0.02 0.02 0.02 0.02 0.04 0.03 0.03 0.01 0.01 0.01 0.01
0.11 0.10 0.10 0.11 0.11 0.10 0.12 0.11 0.10 0.13 0.13 0.12 0.07 0.05 0.05 0.06 0.06 0.09 0.13 0.14 0.09 0.04 0.05 0.05 0.05 0.05 0.06 0.04 0.03 0.03 0.02 0.02 0.02 0.02 0.02 0.02 0.02 0.03 0.03 0.02 0.01 0.01 0.01
0.07 0.07 0.08 0.08 0.07 0.07 0.08 0.10 0.11 0.13 0.11 0.11 0.12 0.10 0.08 0.07 0.06 0.08 0.13 0.22 0.16 0.08 0.06 0.06 0.07 0.06 0.07 0.06 0.05 0.04 0.03 0.03 0.03 0.03 0.02 0.02 0.01 0.02 0.03 0.03 0.02 0.01 0.00
0.03 0.05 0.06 0.06 0.05 0.04 0.07 0.12 0.12 0.13 0.15 0.17 0.15 0.13 0.12 0.09 0.09 0.09 0.11 0.17 0.21 0.15 0.15 0.10 0.10 0.10 0.09 0.10 0.09 0.08 0.06 0.05 0.03 0.03 0.03 0.02 0.02 0.01 0.01 0.02 0.02 0.01 0.00
0.03 0.03 0.05 0.06 0.06 0.07 0.07 0.08 0.11 0.13 0.15 0.17 0.15 0.14 0.12 0.10 0.10 0.09 0.12 0.17 0.20 0.19 0.18 0.14 0.12 0.11 0.11 0.11 0.13 0.13 0.10 0.09 0.06 0.04 0.03 0.03 0.02 0.02 0.01 0.01 0.01 0.01 0.01
0.02 0.02 0.03 0.04 0.05 0.08 0.09 0.09 0.09 0.09 0.10 0.12 0.10 0.11 0.10 0.08 0.06 0.08 0.10 0.13 0.13 0.10 0.12 0.15 0.16 0.10 0.10 0.10 0.11 0.12 0.13 0.12 0.10 0.07 0.05 0.04 0.03 0.02 0.01 0.01 0.01 0.01 0.01
0.01 0.01 0.02 0.03 0.03 0.05 0.06 0.08 0.09 0.08 0.10 0.10 0.10 0.10 0.08 0.06 0.06 0.07 0.08 0.10 0.11 0.10 0.11 0.13 0.18 0.16 0.13 0.11 0.09 0.09 0.10 0.12 0.12 0.10 0.07 0.05 0.04 0.03 0.02 0.02 0.02 0.01 0.02
0.02 0.01 0.02 0.02 0.02 0.04 0.04 0.05 0.06 0.07 0.07 0.06 0.06 0.07 0.08 0.09 0.09 0.08 0.09 0.09 0.11 0.15 0.15 0.14 0.15 0.18 0.16 0.16 0.13 0.11 0.11 0.13 0.16 0.15 0.12 0.09 0.06 0.03 0.02 0.03 0.02 0.01 0.01
0.02 0.03 0.02 0.02 0.03 0.03 0.03 0.03 0.03 0.04 0.05 0.04 0.03 0.04 0.06 0.08 0.10 0.09 0.06 0.07 0.08 0.12 0.14 0.15 0.16 0.17 0.18 0.21 0.21 0.16 0.14 0.13 0.15 0.16 0.15 0.14 0.11 0.07 0.04 0.03 0.02 0.02 0.01
0.01 0.02 0.02 0.02 0.02 0.02 0.02 0.01 0.02 0.02 0.03 0.04 0.03 0.03 0.03 0.04 0.06 0.07 0.06 0.06 0.05 0.06 0.07 0.08 0.10 0.14 0.16 0.19 0.20 0.18 0.16 0.14 0.14 0.16 0.16 0.17 0.17 0.14 0.10 0.07 0.05 0.04 0.02
0.01 0.01 0.01 0.01 0.01 0.01 0.01 0.01 0.01 0.02 0.02 0.03 0.03 0.03 0.03 0.03 0.03 0.04 0.05 0.05 0.04 0.03 0.04 0.05 0.06 0.07 0.10 0.14 0.18 0.17 0.16 0.15 0.12 0.13 0.14 0.15 0.16 0.16 0.14 0.11 0.10 0.08 0.06
0.01 0.00 0.01 0.01 0.01 0.01 0.01 0.01 0.01 0.01 0.02 0.02 0.02 0.02 0.03 0.03 0.03 0.03 0.04 0.05 0.05 0.04 0.03 0.03 0.04 0.05 0.06 0.08 0.11 0.11 0.12 0.11 0.09 0.08 0.09 0.10 0.11 0.12 0.12 0.13 0.13 0.12 0.10
0.01 0.01 0.01 0.01 0.01 0.01 0.00 0.01 0.01 0.01 0.01 0.01 0.02 0.02 0.02 0.02 0.02 0.02 0.03 0.03 0.04 0.03 0.04 0.03 0.03 0.04 0.03 0.05 0.07 0.07 0.07 0.07 0.07 0.07 0.06 0.06 0.07 0.08 0.08 0.08 0.12 0.14 0.14
0.00 0.00 0.00 0.00 0.00 0.00 0.00 0.00 0.01 0.01 0.01 0.01 0.01 0.02 0.02 0.02 0.02 0.02 0.02 0.03 0.03 0.03 0.04 0.03 0.04 0.04 0.03 0.03 0.04 0.05 0.06 0.05 0.04 0.04 0.05 0.05 0.05 0.05 0.05 0.04 0.05 0.08 0.11
0.00 0.00 0.00 0.00 0.00 0.00 0.00 0.01 0.01 0.00 0.00 0.00 0.01 0.01 0.02 0.02 0.02 0.01 0.02 0.02 0.02 0.03 0.04 0.04 0.04 0.04 0.04 0.04 0.03 0.03 0.05 0.06 0.04 0.03 0.03 0.04 0.04 0.04 0.04 0.04 0.04 0.04 0.05
0.00 0.00 0.00 0.00 0.00 0.00 0.00 0.00 0.01 0.00 0.00 0.00 0.00 0.00 0.01 0.01 0.01 0.01 0.01 0.01 0.01 0.02 0.02 0.03 0.03 0.02 0.03 0.02 0.02 0.03 0.03 0.03 0.04 0.04 0.03 0.03 0.03 0.03 0.03 0.03 0.03 0.03 0.03
0.00 0.00 0.00 0.00 0.00 0.00 0.00 0.00 0.00 0.00 0.00 0.01 0.00 0.00 0.00 0.00 0.00 0.00 0.00 0.00 0.01 0.01 0.02 0.02 0.02 0.02 0.02 0.02 0.02 0.02 0.02 0.02 0.02 0.02 0.03 0.03 0.02 0.02 0.02 0.02 0.03 0.03 0.02
0.00 0.00 0.00 0.00 0.00 0.00 0.00 0.00 0.00 0.00 0.00 0.01 0.01 0.01 0.01 0.01 0.01 0.01 0.00 0.00 0.01 0.01 0.01 0.02 0.02 0.02 0.02 0.02 0.02 0.02 0.01 0.01 0.01 0.01 0.01 0.01 0.01 0.01 0.02 0.02 0.02 0.03 0.03
0.00 0.00 0.00 0.00 0.00 0.00 0.00 0.00 0.00 0.00 0.00 0.00 0.00 0.00 0.00 0.01 0.01 0.01 0.01 0.01 0.00 0.00 0.01 0.01 0.01 0.01 0.01 0.01 0.01 0.01 0.01 0.01 0.00 0.01 0.01 0.01 0.01 0.01 0.01 0.01 0.01 0.02 0.02
0.00 0.00 0.00 0.00 0.00 0.00 0.00 0.00 0.00 0.00 0.00 0.00 0.00 0.00 0.00 0.01 0.01 0.01 0.01 0.01 0.01 0.01 0.01 0.01 0.01 0.01 0.01 0.01 0.01 0.01 0.01 0.02 0.01 0.00 0.01 0.01 0.01 0.01 0.01 0.01 0.01 0.01 0.02
0.00 0.00 0.00 0.00 0.00 0.00 0.00 0.00 0.00 0.00 0.00 0.00 0.00 0.01 0.01 0.00 0.00 0.00 0.00 0.01 0.01 0.01 0.01 0.02 0.01 0.01 0.01 0.02 0.02 0.02 0.01 0.01 0.01 0.01 0.01 0.01 0.01 0.01 0.01 0.00 0.01 0.01 0.01
0.00 0.00 0.00 0.00 0.00 0.00 0.00 0.00 0.00 0.00 0.00 0.00 0.00 0.01 0.01 0.00 0.00 0.00 0.00 0.00 0.00 0.00 0.01 0.01 0.01 0.02 0.02 0.02 0.03 0.02 0.02 0.02 0.02 0.02 0.02 0.01 0.02 0.02 0.01 0.01 0.01 0.01 0.01
0.01 0.01 0.00 0.00 0.00 0.00 0.00 0.00 0.00 0.00 0.00 0.00 0.00 0.01 0.00 0.00 0.00 0.01 0.01 0.00 0.00 0.00 0.00 0.00 0.01 0.01 0.01 0.02 0.03 0.03 0.03 0.03 0.02 0.02 0.03 0.02 0.02 0.01 0.01 0.01 0.01 0.01 0.01
0.01 0.01 0.01 0.01 0.01 0.00 0.00 0.00 0.00 0.00 0.00 0.00 0.00 0.00 0.01 0.00 0.01 0.01 0.01 0.01 0.01 0.02 0.01 0.01 0.01 0.01 0.01 0.02 0.03 0.02 0.02 0.02 0.02 0.01 0.03 0.02 0.02 0.02 0.02 0.02 0.01 0.01 0.01
0.01 0.01 0.01 0.00 0.01 0.01 0.00 0.00 0.00 0.00 0.00 0.00 0.00 0.00 0.01 0.01 0.00 0.00 0.00 0.01 0.01 0.02 0.01 0.00 0.00 0.00 0.00 0.00 0.00 0.00 0.01 0.02 0.01 0.01 0.03 0.03 0.02 0.03 0.03 0.02 0.02 0.02 0.01
0.00 0.00 0.00 0.01 0.01 0.01 0.01 0.00 0.00 0.00 0.00 0.00 0.00 0.00 0.00 0.00 0.00 0.00 0.00 0.01 0.01 0.01 0.01 0.01 0.01 0.01 0.01 0.01 0.00 0.00 0.01 0.01 0.02 0.01 0.02 0.04 0.03 0.04 0.03 0.02 0.03 0.03 0.02
MSLP
1016.66 1016.79 1016.87 1016.93 1016.98 1017.03 1017.08 1017.14 1017.18 1017.22 1017.23 1017.23 1017.23 1017.25 1017.31 1017.42 1017.59 1017.82 1018.08 1018.37 1018.65 1018.93 1019.20 1019.46 1019.72 1019.99 1020.27 1020.55 1020.83 1021.09 1021.31 1021.50 1021.66 1021.80 1021.96 1022.14 1022.37 1022.64 1022.95 1023.28 1023.58 1023.86 1024.08
1016.77 1016.90 1016.99 1017.06 1017.11 1017.15 1017.19 1017.23 1017.28 1017.32 1017.35 1017.39 1017.44 1017.51 1017.60 1017.72 1017.88 1018.06 1018.26 1018.47 1018.69 1018.90 1019.12 1019.36 1019.62 1019.90 1020.21 1020.51 1020.81 1021.07 1021.30 1021.48 1021.64 1021.78 1021.93 1022.12 1022.36 1022.65 1022.97 1023.30 1023.62 1023.90 1024.13
1016.84 1016.98 1017.09 1017.17 1017.23 1017.28 1017.32 1017.36 1017.41 1017.46 1017.51 1017.58 1017.67 1017.76 1017.87 1017.99 1018.12 1018.25 1018.38 1018.51 1018.64 1018.79 1018.97 1019.19 1019.45 1019.75 1020.08 1020.42 1020.73 1021.01 1021.24 1021.42 1021.56 1021.69 1021.84 1022.03 1022.27 1022.57 1022.90 1023.25 1023.58 1023.88 1024.13
1016.87 1017.03 1017.16 1017.28 1017.37 1017.43 1017.49 1017.53 1017.57 1017.63 1017.69 1017.77 1017.87 1017.98 1018.09 1018.20 1018.29 1018.36 1018.41 1018.46 1018.52 1018.61 1018.75 1018.95 1019.21 1019.54 1019.89 1020.25 1020.59 1020.89 1021.12 1021.29 1021.43 1021.55 1021.69 1021.87 1022.10 1022.40 1022.74 1023.09 1023.45 1023.77 1024.06
1016.88 1017.06 1017.23 1017.39 1017.52 1017.62 1017.69 1017.74 1017.77 1017.82 1017.87 1017.95 1018.05 1018.15 1018.25 1018.32 1018.37 1018.38 1018.37 1018.34 1018.33 1018.37 1018.47 1018.65 1018.92 1019.26 1019.65 1020.04 1020.40 1020.71 1020.95 1021.12 1021.24 1021.35 1021.47 1021.63 1021.85 1022.13 1022.47 1022.83 1023.20 1023.56 1023.88
1016.88 1017.09 1017.32 1017.53 1017.71 1017.85 1017.93 1017.98 1018.01 1018.03 1018.06 1018.12 1018.19 1018.27 1018.35 1018.39 1018.40 1018.36 1018.29 1018.20 1018.13 1018.12 1018.18 1018.35 1018.61 1018.96 1019.36 1019.78 1020.16 1020.48 1020.73 1020.91 1021.02 1021.11 1021.21 1021.34 1021.53 1021.79 1022.11 1022.47 1022.84 1023.22 1023.58
1016.91 1017.16 1017.44 1017.71 1017.94 1018.11 1018.22 1018.26 1018.27 1018.26 1018.26 1018.28 1018.33 1018.38 1018.43 1018.45 1018.43 1018.35 1018.23 1018.10 1017.98 1017.92 1017.95 1018.08 1018.33 1018.67 1019.08 1019.50 1019.89 1020.23 1020.49 1020.66 1020.77 1020.85 1020.92 1021.03 1021.18 1021.40 1021.69 1022.02 1022.39 1022.77 1023.15
1016.98 1017.28 1017.61 1017.93 1018.21 1018.41 1018.53 1018.57 1018.55 1018.51 1018.48 1018.47 1018.48 1018.52 1018.54 1018.55 1018.51 1018.41 1018.26 1018.09 1017.93 1017.83 1017.81 1017.90 1018.11 1018.43 1018.81 1019.22 1019.61 1019.96 1020.22 1020.41 1020.52 1020.58 1020.64 1020.71 1020.83 1021.00 1021.24 1021.53 1021.87 1022.24 1022.62
1017.09 1017.42 1017.80 1018.16 1018.47 1018.70 1018.83 1018.86 1018.83 1018.77 1018.71 1018.67 1018.67 1018.69 1018.72 1018.72 1018.68 1018.57 1018.41 1018.22 1018.02 1017.87 1017.79 1017.83 1017.98 1018.24 1018.58 1018.96 1019.34 1019.68 1019.94 1020.14 1020.25 1020.32 1020.36 1020.41 1020.49 1020.62 1020.80 1021.04 1021.33 1021.66 1022.02
1017.23 1017.59 1017.99 1018.38 1018.71 1018.94 1019.08 1019.11 1019.07 1019.00 1018.93 1018.88 1018.88 1018.91 1018.95 1018.97 1018.94 1018.85 1018.68 1018.47 1018.24 1018.04 1017.90 1017.86 1017.94 1018.12 1018.40 1018.73 1019.07 1019.39 1019.65 1019.85 1019.98 1020.06 1020.10 1020.13 1020.18 1020.26 1020.38 1020.56 1020.79 1021.07 1021.39
1017.37 1017.73 1018.13 1018.53 1018.86 1019.10 1019.24 1019.27 1019.24 1019.17 1019.11 1019.08 1019.10 1019.15 1019.22 1019.27 1019.27 1019.19 1019.03 1018.81 1018.56 1018.31 1018.11 1017.99 1017.97 1018.07 1018.26 1018.51 1018.80 1019.09 1019.34 1019.54 1019.68 1019.77 1019.82 1019.84 1019.87 1019.91 1019.99 1020.11 1020.28 1020.50 1020.77
1017.49 1017.83 1018.21 1018.59 1018.91 1019.15 1019.28 1019.33 1019.31 1019.26 1019.23 1019.23 1019.28 1019.37 1019.47 1019.56 1019.59 1019.54 1019.40 1019.18 1018.91 1018.62 1018.36 1018.16 1018.06 1018.06 1018.15 1018.32 1018.54 1018.78 1019.01 1019.20 1019.34 1019.44 1019.50 1019.53 1019.55 1019.57 1019.61 1019.68 1019.80 1019.96 1020.18
1017.56 1017.86 1018.21 1018.55 1018.85 1019.07 1019.21 1019.27 1019.28 1019.26 1019.26 1019.30 1019.39 1019.51 1019.66 1019.78 1019.84 1019.82 1019.70 1019.49 1019.22 1018.91 1018.60 1018.35 1018.16 1018.07 1018.08 1018.16 1018.30 1018.47 1018.66 1018.82 1018.96 1019.06 1019.13 1019.17 1019.18 1019.19 1019.21 1019.25 1019.33 1019.45 1019.61
1017.58 1017.84 1018.14 1018.43 1018.70 1018.90 1019.04 1019.12 1019.15 1019.17 1019.21 1019.28 1019.41 1019.56 1019.73 1019.88 1019.97 1019.97 1019.88 1019.70 1019.43 1019.12 1018.80 1018.51 1018.27 1018.11 1018.03 1018.02 1018.08 1018.18 1018.30 1018.43 1018.54 1018.63 1018.69 1018.73 1018.75 1018.76 1018.77 1018.80 1018.85 1018.94 1019.07
1017.57 1017.78 1018.02 1018.27 1018.50 1018.68 1018.82 1018.91 1018.96 1019.01 1019.08 1019.19 1019.33 1019.50 1019.68 1019.84 1019.95 1019.97 1019.91 1019.75 1019.52 1019.23 1018.93 1018.63 1018.37 1018.16 1018.02 1017.94 1017.91 1017.93 1017.98 1018.04 1018.11 1018.17 1018.21 1018.24 1018.26 1018.27 1018.28 1018.30 1018.35 1018.42 1018.54
1017.54 1017.70 1017.90 1018.10 1018.30 1018.46 1018.59 1018.69 1018.76 1018.83 1018.92 1019.03 1019.18 1019.35 1019.52 1019.67 1019.78 1019.82 1019.78 1019.67 1019.48 1019.25 1018.98 1018.71 1018.46 1018.24 1018.05 1017.92 1017.82 1017.75 1017.72 1017.70 1017.70 1017.70 1017.71 1017.72 1017.72 1017.73 1017.74 1017.76 1017.80 1017.88 1017.98
1017.51 1017.64 1017.80 1017.97 1018.13 1018.28 1018.41 1018.51 1018.59 1018.67 1018.75 1018.86 1018.98 1019.12 1019.26 1019.39 1019.49 1019.54 1019.53 1019.46 1019.33 1019.17 1018.97 1018.76 1018.54 1018.33 1018.14 1017.96 1017.80 1017.65 1017.53 1017.43 1017.34 1017.27 1017.22 1017.19 1017.17 1017.16 1017.16 1017.18 1017.22 1017.29 1017.40
1017.48 1017.59 1017.73 1017.87 1018.02 1018.16 1018.28 1018.38 1018.45 1018.53 1018.60 1018.67 1018.76 1018.86 1018.96 1019.06 1019.13 1019.18 1019.19 1019.17 1019.11 1019.02 1018.91 1018.77 1018.61 1018.43 1018.24 1018.04 1017.84 1017.63 1017.42 1017.23 1017.06 1016.91 1016.79 1016.70 1016.63 1016.59 1016.58 1016.58 1016.62 1016.68 1016.78
1017.44 1017.54 1017.67 1017.81 1017.95 1018.07 1018.19 1018.28 1018.35 1018.40 1018.45 1018.49 1018.53 1018.59 1018.64 1018.70 1018.75 1018.79 1018.83 1018.85 1018.85 1018.84 1018.80 1018.73 1018.64 1018.51 1018.34 1018.14 1017.90 1017.64 1017.37 1017.10 1016.84 1016.62 1016.42 1016.27 1016.15 1016.06 1016.01 1015.99 1016.00 1016.04 1016.12
1017.35 1017.46 1017.59 1017.73 1017.87 1017.99 1018.10 1018.18 1018.23 1018.26 1018.28 1018.29 1018.29 1018.30 1018.31 1018.33 1018.36 1018.40 1018.45 1018.50 1018.56 1018.60 1018.63 1018.64 1018.60 1018.51 1018.37 1018.17 1017.92 1017.63 1017.31 1016.99 1016.67 1016.38 1016.12 1015.90 1015.73 1015.59 1015.49 1015.42 1015.39 1015.39 1015.43
1017.18 1017.32 1017.47 1017.61 1017.74 1017.86 1017.96 1018.02 1018.06 1018.07 1018.06 1018.04 1018.01 1017.99 1017.97 1017.97 1017.98 1018.02 1018.08 1018.15 1018.24 1018.32 1018.39 1018.44 1018.44 1018.39 1018.27 1018.08 1017.84 1017.54 1017.20 1016.85 1016.50 1016.16 1015.86 1015.59 1015.36 1015.16 1015.00 1014.88 1014.79 1014.73 1014.72
1016.94 1017.10 1017.25 1017.40 1017.53 1017.64 1017.73 1017.77 1017.79 1017.78 1017.75 1017.71 1017.67 1017.63 1017.60 1017.59 1017.60 1017.64 1017.70 1017.78 1017.87 1017.97 1018.06 1018.12 1018.14 1018.10 1017.99 1017.82 1017.59 1017.30 1016.97 1016.62 1016.26 1015.92 1015.59 1015.29 1015.01 1014.77 1014.55 1014.36 1014.20 1014.07 1013.99
1016.61 1016.78 1016.95 1017.09 1017.22 1017.31 1017.38 1017.41 1017.41 1017.38 1017.34 1017.30 1017.25 1017.21 1017.19 1017.18 1017.20 1017.23 1017.29 1017.36 1017.45 1017.53 1017.60 1017.65 1017.66 1017.62 1017.52 1017.36 1017.14 1016.88 1016.58 1016.26 1015.92 1015.59 1015.27 1014.96 1014.66 1014.37 1014.10 1013.84 1013.61 1013.41 1013.25
1016.21 1016.39 1016.55 1016.68 1016.79 1016.87 1016.91 1016.92 1016.91 1016.88 1016.83 1016.79 1016.76 1016.73 1016.73 1016.73 1016.76 1016.80 1016.84 1016.90 1016.95 1017.00 1017.03 1017.04 1017.01 1016.94 1016.84 1016.68 1016.49 1016.26 1016.00 1015.73 1015.44 1015.15 1014.85 1014.55 1014.25 1013.93 1013.62 1013.31 1013.01 1012.74 1012.51
1015.76 1015.93 1016.08 1016.20 1016.28 1016.34 1016.36 1016.35 1016.33 1016.29 1016.25 1016.22 1016.20 1016.20 1016.21 1016.24 1016.27 1016.31 1016.34 1016.37 1016.38 1016.38 1016.35 1016.30 1016.22 1016.12 1015.98 1015.83 1015.65 1015.46 1015.25 1015.04 1014.81 1014.57 1014.31 1014.04 1013.75 1013.43 1013.09 1012.74 1012.38 1012.05 1011.75
1015.29 1015.44 1015.56 1015.66 1015.72 1015.75 1015.76 1015.74 1015.70 1015.66 1015.63 1015.61 1015.61 1015.63 1015.66 1015.70 1015.74 1015.77 1015.78 1015.78 1015.74 1015.68 1015.59 1015.47 1015.33 1015.18 1015.02 1014.85 1014.69 1014.52 1014.36 1014.20 1014.03 1013.85 1013.65 1013.41 1013.14 1012.83 1012.48 1012.10 1011.71 1011.33 1010.99
Thickness
5740 5739 5738 5736 5736 5735 5736 5735 5736 5737 5737 5737 5738 5740 5741 5741 5740 5738 5737 5736 5735 5733 5732 5731 5730 5729 5728 5727 5727 5726 5725 5724 5723 5722 5722 5721 5721 5720 5719 5718 5717 5716 5716
5736 5736 5735 5733 5733 5733 5733 5733 5733 5733 5733 5733 5734 5735 5736 5737 5737 5735 5734 5733 5732 5731 5730 5730 5729 5728 5727 5726 5725 5724 5724 5723 5722 5721 5721 5720 5720 5719 5718 5717 5716 5716 5715
5733 5733 5732 5731 5731 5731 5730 5730 5730 5730 5730 5731 5731 5732 5732 5732 5733 5733 5732 5730 5730 5730 5729 5729 5727 5726 5726 5725 5724 5723 5722 5722 5721 5720 5719 5719 5719 5718 5717 5717 5716 5715 5714
5730 5730 5729 5727 5727 5728 5728 5727 5727 5726 5725 5726 5727 5728 5729 5729 5730 5730 5730 5729 5728 5728 5727 5727 5726 5725 5724 5724 5723 5722 5721 5720 5719 5719 5718 5718 5717 5717 5717 5716 5715 5714 5714
5727 5726 5725 5724 5725 5725 5724 5724 5722 5721 5720 5721 5722 5723 5725 5726 5726 5727 5727 5726 5726 5725 5725 5725 5724 5723 5722 5722 5721 5720 5719 5718 5718 5717 5717 5716 5716 5716 5715 5715 5714 5714 5713
5723 5723 5722 5721 5721 5721 5720 5719 5718 5718 5717 5717 5719 5720 5721 5722 5722 5723 5723 5723 5723 5723 5723 5723 5722 5720 5720 5720 5719 5719 5718 5717 5716 5715 5715 5715 5715 5714 5714 5714 5713 5713 5712
5720 5720 5719 5718 5718 5716 5715 5715 5715 5714 5714 5715 5712 5712 5716 5719 5720 5720 5720 5720 5720 5720 5720 5720 5719 5717 5717 5717 5717 5716 5715 5715 5714 5714 5713 5713 5713 5713 5713 5712 5712 5712 5712
5716 5717 5715 5715 5714 5713 5712 5712 5711 5709 5710 5711 5708 5705 5704 5707 5712 5717 5716 5716 5716 5716 5717 5716 5715 5715 5715 5715 5715 5714 5713 5713 5712 5712 5712 5711 5711 5711 5711 5711 5711 5711 5711
5713 5712 5712 5711 5710 5710 5708 5708 5707 5705 5703 5706 5707 5702 5696 5694 5700 5707 5710 5711 5712 5712 5713 5713 5712 5712 5712 5711 5711 5711 5710 5709 5709 5709 5709 5709 5709 5709 5709 5709 5709 5709 5710
5710 5709 5708 5708 5707 5706 5704 5704 5702 5702 5701 5699 5701 5702 5700 5698 5693 5693 5700 5704 5707 5707 5708 5709 5709 5709 5708 5708 5707 5707 5707 5706 5706 5706 5706 5706 5707 5707 5707 5707 5708 5708 5708
5709 5708 5706 5705 5704 5702 5700 5700 5699 5698 5697 5695 5695 5695 5696 5696 5695 5690 5688 5693 5698 5702 5703 5704 5704 5704 5704 5704 5703 5703 5703 5703 5702 5702 5703 5704 5704 5705 5705 5705 5706 5706 5707
5708 5706 5705 5703 5701 5699 5698 5696 5695 5694 5693 5692 5691 5691 5690 5689 5688 5688 5685 5686 5688 5694 5698 5699 5699 5699 5699 5699 5699 5698 5698 5698 5698 5698 5699 5700 5701 5702 5702 5703 5704 5704 5705
5705 5703 5703 5700 5699 5697 5696 5694 5693 5691 5690 5689 5687 5687 5687 5687 5687 5686 5682 5681 5682 5686 5690 5693 5694 5694 5694 5694 5693 5693 5693 5693 5693 5694 5695 5695 5697 5698 5699 5700 5701 5702 5703
5705 5703 5701 5699 5697 5696 5695 5692 5691 5690 5688 5686 5685 5684 5683 5684 5684 5682 5679 5677 5674 5677 5681 5684 5688 5689 5688 5687 5686 5687 5687 5687 5687 5688 5690 5691 5692 5693 5694 5696 5698 5699 5700
5704 5702 5700 5698 5696 5694 5692 5690 5689 5687 5685 5684 5683 5682 5680 5680 5680 5680 5678 5675 5669 5665 5668 5675 5679 5682 5682 5681 5680 5681 5680 5681 5681 5682 5684 5685 5686 5687 5689 5691 5693 5695 5696
5703 5700 5699 5697 5695 5692 5691 5688 5687 5685 5683 5681 5680 5678 5676 5676 5675 5675 5674 5672 5670 5665 5662 5668 5672 5675 5676 5676 5675 5674 5674 5675 5676 5677 5678 5680 5681 5682 5683 5685 5687 5689 5691
5701 5699 5697 5695 5693 5691 5689 5687 5685 5684 5681 5679 5677 5676 5673 5672 5670 5668 5668 5667 5666 5664 5659 5662 5666 5668 5669 5669 5668 5668 5669 5670 5671 5672 5674 5675 5676 5677 5678 5680 5682 5683 5685
5700 5698 5696 5694 5692 5690 5688 5685 5683 5682 5679 5676 5674 5672 5670 5669 5666 5664 5662 5661 5660 5660 5657 5654 5657 5660 5661 5663 5663 5663 5664 5665 5667 5668 5669 5670 5671 5672 5673 5675 5676 5677 5679
5700 5698 5696 5693 5691 5689 5687 5685 5682 5680 5677 5675 5672 5669 5667 5665 5662 5660 5658 5656 5655 5656 5654 5651 5651 5654 5655 5657 5656 5657 5658 5659 5661 5663 5664 5665 5666 5666 5668 5669 5670 5672 5674
5699 5697 5695 5693 5691 5689 5686 5684 5681 5678 5675 5673 5670 5668 5665 5662 5659 5656 5654 5652 5651 5649 5648 5647 5646 5647 5648 5651 5650 5649 5649 5651 5653 5656 5657 5659 5660 5661 5662 5664 5665 5666 5668
5700 5697 5694 5692 5690 5688 5685 5682 5678 5677 5673 5670 5668 5666 5663 5661 5657 5654 5651 5648 5645 5642 5641 5640 5639 5640 5640 5640 5640 5642 5641 5643 5645 5648 5650 5652 5654 5654 5655 5657 5658 5660 5661
5698 5695 5693 5690 5688 5687 5682 5678 5675 5672 5670 5667 5665 5663 5661 5659 5656 5652 5649 5645 5641 5637 5635 5633 5632 5631 5632 5634 5634 5634 5633 5632 5633 5639 5640 5642 5646 5647 5650 5652 5654 5655 5657
5696 5693 5691 5688 5685 5682 5678 5675 5671 5668 5666 5664 5662 5660 5659 5658 5655 5651 5647 5642 5639 5635 5632 5629 5627 5626 5627 5628 5627 5626 5625 5624 5625 5629 5629 5632 5636 5638 5642 5645 5648 5649 5650
5694 5691 5688 5686 5684 5680 5676 5672 5668 5664 5663 5662 5660 5658 5655 5653 5650 5647 5643 5641 5638 5636 5634 5629 5627 5626 5626 5625 5623 5621 5620 5620 5622 5623 5624 5623 5627 5629 5634 5637 5639 5641 5642
5691 5689 5687 5684 5681 5678 5674 5669 5665 5663 5661 5661 5660 5658 5655 5652 5647 5643 5639 5636 5635 5634 5633 5632 5629 5626 5624 5621 5618 5615 5613 5612 5613 5616 5619 5617 5620 5622 5625 5628 5631 5632 5634
5690 5687 5685 5683 5681 5677 5673 5668 5663 5661 5660 5659 5658 5657 5654 5651 5646 5641 5636 5633 5630 5629 5628 5627 5625 5623 5621 5619 5616 5612 5609 5606 5607 5609 5612 5611 5611 5612 5614 5620 5623 5624 5625